When you browse on this site, cookies collect data to enhance your experience and personalize the content and advertising you see.
Visit our Privacy Policy to learn more. By continuing to use the site, you agree to this use of cookies and data.
  • Em Portugal
  • Lista de países
  • Para 7 dias
  • Temperatura da água
  • Mapa do tempo
  • Widgets de tempo
  • user-avatar
    Iniciar Sessão

    Previsão horária em Mazari Sharif

    Hoje, 8 Dezembro, Domingo

    Tempo Temperatura Precipitação Vento Pressão Humidade
    00:00 +5°C° 0 mm 1 m/s 657 mmHg 57%
    01:00 +5°C° 0 mm 1 m/s 657 mmHg 56%
    02:00 +5°C° 0 mm 1 m/s 656 mmHg 56%
    03:00 +3°C° 0 mm 0 m/s 656 mmHg 56%
    04:00 +3°C° 0 mm 0 m/s 656 mmHg 55%
    05:00 +3°C° 0 mm 0 m/s 656 mmHg 53%
    06:00 +3°C° 0 mm 0 m/s 656 mmHg 52%
    07:00 +3°C° 0 mm 0 m/s 656 mmHg 50%
    08:00 +6°C° 0 mm 0 m/s 656 mmHg 44%
    09:00 +8°C° 0 mm 0 m/s 657 mmHg 37%
    10:00 +10°C° 0 mm 0 m/s 657 mmHg 30%
    11:00 +10°C° 0 mm 0 m/s 657 mmHg 30%
    12:00 +12°C° 0 mm 1 m/s 657 mmHg 30%
    13:00 +12°C° 0 mm 1 m/s 656 mmHg 30%
    14:00 +10°C° 0 mm 0 m/s 656 mmHg 34%
    15:00 +9°C° 0 mm 0 m/s 655 mmHg 38%
    16:00 +7°C° 0 mm 0 m/s 654 mmHg 43%
    17:00 +7°C° 0 mm 0 m/s 654 mmHg 39%
    18:00 +7°C° 0 mm 0 m/s 654 mmHg 36%
    19:00 +7°C° 0 mm 1 m/s 654 mmHg 33%
    20:00 +6°C° 0 mm 0 m/s 654 mmHg 32%
    21:00 +6°C° 0 mm 0 m/s 653 mmHg 31%
    22:00 +5°C° 0 mm 0 m/s 653 mmHg 30%
    23:00 +5°C° 0 mm 0 m/s 653 mmHg 29%

    Amanhã, 9 Dezembro, Segunda-feira

    Tempo Temperatura Precipitação Vento Pressão Humidade
    00:00 +6°C° 0 mm 0 m/s 653 mmHg 28%
    01:00 +6°C° 0 mm 0 m/s 653 mmHg 27%
    02:00 +6°C° 0 mm 0 m/s 653 mmHg 27%
    03:00 +6°C° 0 mm 0 m/s 653 mmHg 26%
    04:00 +7°C° 0 mm 1 m/s 653 mmHg 25%
    05:00 +7°C° 0 mm 1 m/s 653 mmHg 24%
    06:00 +8°C° 0 mm 1 m/s 653 mmHg 23%
    07:00 +8°C° 0 mm 1 m/s 653 mmHg 22%
    08:00 +10°C° 0 mm 1 m/s 654 mmHg 20%
    09:00 +12°C° 0 mm 1 m/s 655 mmHg 17%
    10:00 +14°C° 0 mm 1 m/s 655 mmHg 14%
    11:00 +14°C° 0 mm 1 m/s 655 mmHg 16%
    12:00 +14°C° 0 mm 1 m/s 655 mmHg 18%
    13:00 +15°C° 0 mm 1 m/s 654 mmHg 21%
    14:00 +14°C° 0 mm 1 m/s 654 mmHg 25%
    15:00 +12°C° 0 mm 1 m/s 654 mmHg 29%
    16:00 +11°C° 0 mm 1 m/s 654 mmHg 33%
    17:00 +10°C° 0.1 mm 2 m/s 654 mmHg 42%
    18:00 +10°C° 0.1 mm 2 m/s 655 mmHg 50%
    19:00 +10°C° 0.1 mm 3 m/s 655 mmHg 58%
    20:00 +9°C° 0 mm 3 m/s 655 mmHg 59%
    21:00 +9°C° 0 mm 2 m/s 655 mmHg 59%
    22:00 +9°C° 0 mm 2 m/s 655 mmHg 60%
    23:00 +8°C° 0.1 mm 2 m/s 655 mmHg 64%

    Depois de amanhã, 10 Dezembro, Terça-feira

    Tempo Temperatura Precipitação Vento Pressão Humidade
    00:00 +9°C° 0.1 mm 1 m/s 655 mmHg 68%
    01:00 +8°C° 0.1 mm 1 m/s 655 mmHg 73%
    02:00 +8°C° 0 mm 1 m/s 655 mmHg 76%
    03:00 +8°C° 0 mm 1 m/s 654 mmHg 78%
    04:00 +8°C° 0 mm 1 m/s 654 mmHg 81%
    05:00 +8°C° 0 mm 1 m/s 654 mmHg 81%
    06:00 +7°C° 0 mm 0 m/s 655 mmHg 81%
    07:00 +7°C° 0 mm 0 m/s 655 mmHg 81%
    08:00 +8°C° 0 mm 0 m/s 655 mmHg 75%
    09:00 +10°C° 0 mm 1 m/s 656 mmHg 69%
    10:00 +11°C° 0 mm 1 m/s 656 mmHg 63%
    11:00 +11°C° 0.1 mm 1 m/s 655 mmHg 63%
    12:00 +10°C° 0.1 mm 2 m/s 655 mmHg 62%
    13:00 +10°C° 0.1 mm 2 m/s 655 mmHg 62%
    14:00 +10°C° 0.2 mm 2 m/s 655 mmHg 66%
    15:00 +9°C° 0.2 mm 2 m/s 654 mmHg 69%
    16:00 +8°C° 0.2 mm 2 m/s 654 mmHg 73%
    17:00 +9°C° 0.1 mm 1 m/s 654 mmHg 73%
    18:00 +9°C° 0.1 mm 1 m/s 655 mmHg 72%
    19:00 +9°C° 0.1 mm 1 m/s 655 mmHg 72%
    20:00 +9°C° 0 mm 1 m/s 655 mmHg 74%
    21:00 +8°C° 0 mm 1 m/s 655 mmHg 75%
    22:00 +8°C° 0 mm 1 m/s 655 mmHg 76%
    23:00 +8°C° 0 mm 1 m/s 655 mmHg 76%

    11 Dezembro, Quarta-feira

    Tempo Temperatura Precipitação Vento Pressão Humidade
    00:00 +7°C° 0 mm 1 m/s 655 mmHg 76%
    01:00 +7°C° 0 mm 1 m/s 654 mmHg 77%
    02:00 +7°C° 0.1 mm 1 m/s 654 mmHg 78%
    03:00 +6°C° 0.1 mm 1 m/s 654 mmHg 80%
    04:00 +6°C° 0.1 mm 1 m/s 654 mmHg 82%
    05:00 +6°C° 0.2 mm 1 m/s 654 mmHg 82%
    06:00 +6°C° 0.2 mm 1 m/s 654 mmHg 83%
    07:00 +5°C° 0.2 mm 1 m/s 654 mmHg 84%
    08:00 +7°C° 0 mm 1 m/s 654 mmHg 76%
    09:00 +8°C° 0 mm 1 m/s 654 mmHg 69%
    10:00 +9°C° 0 mm 1 m/s 655 mmHg 62%
    11:00 +10°C° 0 mm 1 m/s 654 mmHg 60%
    12:00 +9°C° 0 mm 2 m/s 653 mmHg 58%
    13:00 +9°C° 0 mm 2 m/s 653 mmHg 57%
    14:00 +10°C° 0.1 mm 1 m/s 652 mmHg 60%
    15:00 +9°C° 0.1 mm 1 m/s 652 mmHg 62%
    16:00 +9°C° 0.1 mm 1 m/s 652 mmHg 65%
    17:00 +8°C° 0 mm 1 m/s 652 mmHg 67%
    18:00 +7°C° 0 mm 0 m/s 652 mmHg 69%
    19:00 +6°C° 0 mm 0 m/s 652 mmHg 72%
    20:00 +6°C° 0 mm 0 m/s 652 mmHg 72%
    21:00 +6°C° 0 mm 0 m/s 652 mmHg 72%
    22:00 +6°C° 0 mm 0 m/s 652 mmHg 72%
    23:00 +6°C° 0 mm 0 m/s 652 mmHg 73%

    12 Dezembro, Quinta-feira

    Tempo Temperatura Precipitação Vento Pressão Humidade
    00:00 +5°C° 0 mm 0 m/s 651 mmHg 74%
    01:00 +5°C° 0 mm 0 m/s 651 mmHg 74%
    02:00 +5°C° 0 mm 0 m/s 651 mmHg 75%
    03:00 +5°C° 0 mm 0 m/s 651 mmHg 76%
    04:00 +4°C° 0 mm 0 m/s 651 mmHg 76%
    05:00 +4°C° 0 mm 0 m/s 651 mmHg 76%
    06:00 +4°C° 0 mm 0 m/s 652 mmHg 76%
    07:00 +4°C° 0 mm 0 m/s 652 mmHg 76%
    08:00 +5°C° 0 mm 0 m/s 652 mmHg 72%
    09:00 +7°C° 0 mm 1 m/s 652 mmHg 68%
    10:00 +8°C° 0 mm 1 m/s 653 mmHg 64%
    11:00 +7°C° 0 mm 2 m/s 652 mmHg 64%
    12:00 +7°C° 0 mm 2 m/s 652 mmHg 65%
    13:00 +7°C° 0 mm 2 m/s 652 mmHg 66%
    14:00 +7°C° 0.1 mm 2 m/s 652 mmHg 69%
    15:00 +7°C° 0.1 mm 2 m/s 652 mmHg 71%
    16:00 +6°C° 0.1 mm 2 m/s 652 mmHg 74%
    17:00 +6°C° 0.1 mm 2 m/s 652 mmHg 77%
    18:00 +5°C° 0.1 mm 2 m/s 652 mmHg 79%
    19:00 +5°C° 0.1 mm 2 m/s 653 mmHg 82%
    20:00 +5°C° 0.1 mm 2 m/s 653 mmHg 82%
    21:00 +4°C° 0.1 mm 2 m/s 653 mmHg 83%
    22:00 +4°C° 0.1 mm 2 m/s 653 mmHg 84%
    23:00 +4°C° 0.3 mm 2 m/s 653 mmHg 85%

    13 Dezembro, Sexta-feira

    Tempo Temperatura Precipitação Vento Pressão Humidade
    00:00 +4°C° 0.3 mm 2 m/s 653 mmHg 87%
    01:00 +4°C° 0.3 mm 2 m/s 653 mmHg 88%
    02:00 +4°C° 0.1 mm 1 m/s 653 mmHg 89%
    03:00 +4°C° 0.1 mm 1 m/s 653 mmHg 89%
    04:00 +4°C° 0.1 mm 1 m/s 653 mmHg 90%
    05:00 +3°C° 0 mm 0 m/s 653 mmHg 90%
    06:00 +3°C° 0 mm 0 m/s 654 mmHg 89%
    07:00 +3°C° 0 mm 0 m/s 654 mmHg 89%
    08:00 +5°C° 0 mm 1 m/s 654 mmHg 83%
    09:00 +6°C° 0 mm 1 m/s 654 mmHg 77%
    10:00 +6°C° 0 mm 2 m/s 654 mmHg 71%
    11:00 +6°C° 0 mm 2 m/s 653 mmHg 70%
    12:00 +6°C° 0 mm 2 m/s 653 mmHg 68%
    13:00 +7°C° 0 mm 3 m/s 652 mmHg 67%
    14:00 +7°C° 0 mm 2 m/s 652 mmHg 69%
    15:00 +6°C° 0 mm 2 m/s 653 mmHg 71%
    16:00 +6°C° 0 mm 2 m/s 653 mmHg 73%
    17:00 +6°C° 0 mm 2 m/s 653 mmHg 73%
    18:00 +6°C° 0 mm 1 m/s 653 mmHg 72%
    19:00 +6°C° 0 mm 1 m/s 653 mmHg 72%
    20:00 +6°C° 0 mm 1 m/s 653 mmHg 69%
    21:00 +6°C° 0 mm 1 m/s 653 mmHg 66%
    22:00 +6°C° 0 mm 1 m/s 653 mmHg 63%
    23:00 +6°C° 0 mm 1 m/s 652 mmHg 63%
    Mostrar mais